Location: ???
(35.5616°N, 139.7977°E)
Time: 20:38:38
(UTC+00:00)

IRS-1D - Pass Details

Date: 17 November 2025
Orbit: 735 x 812 km, 98.8° (Epoch: 08 December)

Event Time Altitude Azimuth Distance (km) Brightness Sun altitude
Rises 19:29:02 0° 14° (NNE) 3,173 6.8 -22.3°
Reaches altitude 10° 19:31:19 10° 16° (NNE) 2,245 6.0 -21.9°
Maximum altitude 19:36:14 79° 103° (ESE) 755 3.5 -20.9°
Drops below altitude 10° 19:41:10 10° 190° (S) 2,242 5.9 -19.9°
Sets 19:43:26 0° 192° (SSW) 3,169 6.7 -19.4°
